Find Starlink 32221

NORAD ID: 60342 Int'l Des: 2024-136 Owner: SPXS Country: US Constellation: starlink operational
LEOCIRCULAR

当前视图

正在加载3D地球...

About Starlink 32221

Starlink 32221 (NORAD 60342) is a starlink constellation satellite (v2 mini) launched Aug 2, 2024 by SPXS of US. It operates in LEO, CIRCULAR orbit with a mass of 730.00 kg.

关于 Starlink 32221

正在加载描述...

即将过境

Passes for default location (London). Set your location on the main map for personalized predictions.

高度历史

Loading altitude history...

两行轨道根数

1 60342U 24136P 26195.32444952 .00004786 00000-0 17346-3 0 9996
2 60342 53.1631 207.4073 0001428 96.7025 263.4138 15.30226527109058
Epoch: Jul 14, 2026 • Age: 15 hours

当前状态

高度 490.1 km
远地点 / 近地点 N/A
速度 7.62 km/s
星下点 -42.54°S, 150.87°E
发射日期 Aug 2, 2024
运行时间 1.9 years
类型 internet

技术详情

分类 Payload
质量 730.00 kg
干质量 700.00 kg
总质量 730.00 kg
长度 0.30 m
直径 4.10 m
跨度 29.00 m
形状 Box + pan
制造商 SPXS
平台类型 Starlink V2M
阶段状态 In Orbit
所有者/国家 SPXS/US

Most Searched